Wiscasset, ME

4:43 AM EST on December 15, 2017 (GMT -0500)
Wiscasset

Weather History for KIWI - November, 2012

Change the Weather History Date:

Monday, November 26, 2012

  Actual Average Record
Temperature  
Mean Temperature 31 °F -  
Max Temperature 41 °F 41 °F 55 °F (2011)
Min Temperature 21 °F 25 °F 16 °F (2005)
Degree Days  
Heating Degree Days 34    
Moisture  
Dew Point 15 °F    
Average Humidity 54    
Maximum Humidity 74    
Minimum Humidity 43    
Precipitation  
Precipitation 0.00 in - - ()
Sea Level Pressure  
Sea Level Pressure 30.00 in    
Wind  
Wind Speed 2 mph (West)    
Max Wind Speed 7 mph    
Max Gust Speed -    
Visibility 10 miles    
Events      
Averages and records for this station are not official NWS values.
T = Trace of Precipitation, MM = Missing Value Source: NWS Daily Summary

Daily Weather History Graph

Daily Weather History Graph

Search for Another Location

Airport or City:

Trip Planner

Search our weather history database for the weather conditions in past years. The results will help you decide how hot, cold, wet, or windy it might be!

Date:

Astronomy

Nov. 26, 2012 Rise Set
Actual Time 6:48 AM EST 4:04 PM EST
Civil Twilight 6:16 AM EST 4:36 PM EST
Nautical Twilight 5:40 AM EST 5:11 PM EST
Astronomical Twilight 5:05 AM EST 5:46 PM EST
Moon 2:56 PM EST (11/26) 4:53 AM EST (11/26)
Length of Visible Light 10h 20m
Length of Day
9h 16m
Waxing Gibbous, 97% of the Moon is Illuminated
Nov 26
Waxing Gibbous
Nov 28
Full
Dec 6
Last Quarter
Dec 13
New
Dec 20
First Quarter

Hourly Weather History & Observations

Time (EST) Temp. Windchill Dew Point Humidity Pressure Visibility Wind Dir Wind Speed Gust Speed Precip Events Conditions
12:53 AM 26.1 °F - 10.0 °F 51% 29.80 in 10.0 mi Calm Calm - N/A   Clear
1:53 AM 27.0 °F 21.6 °F 9.0 °F 47% 29.82 in 10.0 mi Variable 4.6 mph - N/A   Clear
2:53 AM 27.0 °F - 10.0 °F 49% 29.84 in 10.0 mi Calm Calm - N/A   Clear
3:53 AM 25.0 °F - 10.9 °F 55% 29.85 in 10.0 mi Calm Calm - N/A   Clear
4:53 AM 25.0 °F - 12.0 °F 58% 29.87 in 10.0 mi Calm Calm - N/A   Clear
5:53 AM 23.0 °F - 12.9 °F 65% 29.88 in 10.0 mi Calm Calm - N/A   Clear
6:53 AM 21.0 °F - 14.0 °F 74% 29.90 in 10.0 mi Calm Calm - N/A   Clear
7:53 AM 25.0 °F - 15.1 °F 66% 29.91 in 10.0 mi Calm Calm - N/A   Clear
8:53 AM 32.0 °F - 19.9 °F 61% 29.92 in 10.0 mi Calm Calm - N/A   Clear
9:53 AM 37.0 °F 32.4 °F 21.9 °F 54% 29.93 in 10.0 mi Variable 5.8 mph - N/A   Clear
10:53 AM 39.0 °F 34.0 °F 21.9 °F 50% 29.94 in 10.0 mi Variable 6.9 mph - N/A   Clear
11:53 AM 39.9 °F 36.7 °F 21.9 °F 49% 29.94 in 10.0 mi WSW 4.6 mph - N/A   Partly Cloudy
12:53 PM 39.9 °F 36.7 °F 21.9 °F 49% 29.95 in 10.0 mi Variable 4.6 mph - N/A   Overcast
1:53 PM 41.0 °F 37.1 °F 21.0 °F 45% 29.97 in 10.0 mi Variable 5.8 mph - N/A   Partly Cloudy
2:53 PM 41.0 °F 36.4 °F 19.9 °F 43% 30.00 in 10.0 mi Variable 6.9 mph - N/A   Clear
3:53 PM 37.0 °F 33.3 °F 18.0 °F 46% 30.04 in 10.0 mi Variable 4.6 mph - N/A   Clear
4:53 PM 35.1 °F - 18.0 °F 50% 30.07 in 10.0 mi Calm Calm - N/A   Clear
5:53 PM 33.1 °F - 17.1 °F 52% 30.11 in 10.0 mi Calm Calm - N/A   Clear
6:53 PM 30.9 °F 27.5 °F 15.1 °F 52% 30.14 in 10.0 mi Variable 3.5 mph - N/A   Clear
7:53 PM 30.0 °F 26.5 °F 10.9 °F 45% 30.17 in 10.0 mi NW 3.5 mph - N/A   Clear
8:53 PM 27.0 °F - 12.9 °F 56% 30.19 in 10.0 mi Calm Calm - N/A   Clear
9:53 PM 24.1 °F - 14.0 °F 65% 30.22 in 10.0 mi Calm Calm - N/A   Clear
10:53 PM 26.1 °F 21.9 °F 10.9 °F 53% 30.23 in 10.0 mi Variable 3.5 mph - N/A   Clear
11:53 PM 25.0 °F - 10.9 °F 55% 30.26 in 10.0 mi Calm Calm - N/A   Clear